Location: Dugenta
(41.1333°N, 14.4500°E)
Time: 12:54:44
(UTC+00:00)

CZ-2C R/B - Pass Details

Date: 03 March 2021
Orbit: 783 x 871 km, 98.2° (Epoch: 14 April)

Event Time Altitude Azimuth Distance (km) Brightness Sun altitude
Rises 18:01:44 0° 14° (NNE) 3,423 5.7 -13.3°
Reaches altitude 10° 18:04:09 10° 16° (NNE) 2,471 5.0 -13.7°
Maximum altitude 18:09:38 74° 102° (ESE) 863 2.6 -14.7°
Drops below altitude 10° 18:14:56 10° 188° (S) 2,396 5.1 -15.7°
Sets 18:17:15 0° 190° (S) 3,311 5.8 -16.2°
